Time,TemperatureF,DewpointF,PressureIn,WindDirection,WindDirectionDegrees,WindSpeedMPH,WindSpeedGustMPH,Humidity,HourlyPrecipIn,Conditions,Clouds,dailyrainin,SoftwareType,DateUTC
2013-05-01 00:02:00,70.6,57.0,29.90,WNW,285,9.0,19.0,62,0.00,,,0.00,weatherlink.com 1.10,2013-05-01 05:02:00,
2013-05-01 00:17:00,70.5,57.0,29.91,WNW,283,5.0,14.0,62,0.00,,,0.00,weatherlink.com 1.10,2013-05-01 05:17:00,
2013-05-01 00:32:00,70.5,56.0,29.91,WNW,292,6.0,12.0,60,0.00,,,0.00,weatherlink.com 1.10,2013-05-01 05:32:00,
2013-05-01 00:47:00,70.7,55.0,29.91,West,267,9.0,14.0,58,0.00,,,0.00,weatherlink.com 1.10,2013-05-01 05:47:00,
2013-05-01 01:02:00,71.1,55.0,29.91,West,273,10.0,11.0,57,0.00,,,0.00,weatherlink.com 1.10,2013-05-01 06:02:00,
2013-05-01 01:17:00,71.0,55.0,29.92,WNW,289,15.0,15.0,57,0.00,,,0.00,weatherlink.com 1.10,2013-05-01 06:17:00,
2013-05-01 01:32:00,70.8,55.0,29.92,West,266,3.0,12.0,57,0.00,,,0.00,weatherlink.com 1.10,2013-05-01 06:32:00,
2013-05-01 01:47:00,70.8,55.0,29.91,WNW,285,3.0,14.0,57,0.00,,,0.00,weatherlink.com 1.10,2013-05-01 06:47:00,
2013-05-01 02:02:00,69.9,55.0,29.91,West,264,4.0,12.0,59,0.00,,,0.00,weatherlink.com 1.10,2013-05-01 07:02:00,
2013-05-01 02:17:00,69.8,55.0,29.91,WSW,239,4.0,9.0,59,0.00,,,0.00,weatherlink.com 1.10,2013-05-01 07:17:00,
2013-05-01 02:32:00,69.6,54.0,29.91,West,273,3.0,8.0,59,0.00,,,0.00,weatherlink.com 1.10,2013-05-01 07:32:00,
2013-05-01 02:47:00,69.2,54.0,29.92,WSW,252,4.0,6.0,59,0.00,,,0.00,weatherlink.com 1.10,2013-05-01 07:47:00,
2013-05-01 03:02:00,69.0,54.0,29.92,West,274,2.0,7.0,59,0.00,,,0.00,weatherlink.com 1.10,2013-05-01 08:02:00,
2013-05-01 03:17:00,69.0,53.0,29.92,West,274,8.0,9.0,58,0.00,,,0.00,weatherlink.com 1.10,2013-05-01 08:17:00,
2013-05-01 03:32:00,68.7,54.0,29.93,WSW,253,5.0,9.0,59,0.00,,,0.00,weatherlink.com 1.10,2013-05-01 08:32:00,
2013-05-01 03:47:00,67.6,54.0,29.94,SW,232,6.0,6.0,62,0.00,,,0.00,weatherlink.com 1.10,2013-05-01 08:47:00,
2013-05-01 04:02:00,67.0,54.0,29.94,WSW,257,6.0,11.0,64,0.00,,,0.00,weatherlink.com 1.10,2013-05-01 09:02:00,
2013-05-01 04:17:00,66.6,55.0,29.94,SW,228,5.0,10.0,67,0.00,,,0.00,weatherlink.com 1.10,2013-05-01 09:17:00,
2013-05-01 04:32:00,66.5,55.0,29.95,SW,226,3.0,7.0,67,0.00,,,0.00,weatherlink.com 1.10,2013-05-01 09:32:00,
2013-05-01 04:47:00,66.2,55.0,29.95,SW,232,5.0,7.0,68,0.00,,,0.00,weatherlink.com 1.10,2013-05-01 09:47:00,
2013-05-01 05:02:00,66.7,55.0,29.95,WSW,243,4.0,8.0,67,0.00,,,0.00,weatherlink.com 1.10,2013-05-01 10:02:00,
2013-05-01 05:17:00,67.1,55.0,29.95,WSW,245,4.0,7.0,65,0.00,,,0.00,weatherlink.com 1.10,2013-05-01 10:17:00,
2013-05-01 05:32:00,66.5,55.0,29.96,SW,233,4.0,7.0,67,0.00,,,0.00,weatherlink.com 1.10,2013-05-01 10:32:00,
2013-05-01 05:47:00,65.4,55.0,29.97,SW,233,3.0,4.0,69,0.00,,,0.00,weatherlink.com 1.10,2013-05-01 10:47:00,
2013-05-01 06:02:00,65.2,55.0,29.97,SW,229,3.0,7.0,70,0.00,,,0.00,weatherlink.com 1.10,2013-05-01 11:02:00,
2013-05-01 06:18:00,65.0,55.0,29.98,SW,214,4.0,5.0,71,0.00,,,0.00,weatherlink.com 1.10,2013-05-01 11:18:00,
2013-05-01 06:33:00,64.7,55.0,29.98,SW,233,3.0,7.0,72,0.00,,,0.00,weatherlink.com 1.10,2013-05-01 11:33:00,
2013-05-01 06:48:00,64.7,55.0,29.98,SSW,212,3.0,4.0,72,0.00,,,0.00,weatherlink.com 1.10,2013-05-01 11:48:00,
2013-05-01 07:03:00,64.6,55.0,29.99,SW,232,6.0,6.0,72,0.00,,,0.00,weatherlink.com 1.10,2013-05-01 12:03:00,
2013-05-01 07:18:00,65.3,56.0,29.99,SW,221,4.0,7.0,71,0.00,,,0.00,weatherlink.com 1.10,2013-05-01 12:18:00,
2013-05-01 07:33:00,66.3,56.0,30.00,SW,236,2.0,6.0,69,0.00,,,0.00,weatherlink.com 1.10,2013-05-01 12:33:00,
2013-05-01 07:48:00,67.7,54.0,30.00,West,280,3.0,7.0,61,0.00,,,0.00,weatherlink.com 1.10,2013-05-01 12:48:00,
2013-05-01 08:03:00,69.0,54.0,30.00,WNW,297,3.0,5.0,60,0.00,,,0.00,weatherlink.com 1.10,2013-05-01 13:03:00,
2013-05-01 08:18:00,69.5,54.0,30.00,West,271,3.0,9.0,58,0.00,,,0.00,weatherlink.com 1.10,2013-05-01 13:18:00,
2013-05-01 08:33:00,70.2,54.0,30.00,WSW,243,7.0,10.0,56,0.00,,,0.00,weatherlink.com 1.10,2013-05-01 13:33:00,
2013-05-01 08:48:00,70.6,55.0,30.01,WNW,300,3.0,6.0,59,0.00,,,0.00,weatherlink.com 1.10,2013-05-01 13:48:00,
2013-05-01 09:03:00,71.0,56.0,30.01,West,281,3.0,6.0,59,0.00,,,0.00,weatherlink.com 1.10,2013-05-01 14:03:00,
2013-05-01 09:18:00,71.9,56.0,30.02,WNW,293,4.0,8.0,57,0.00,,,0.00,weatherlink.com 1.10,2013-05-01 14:18:00,
2013-05-01 09:33:00,73.0,57.0,30.02,WSW,252,1.0,8.0,57,0.00,,,0.00,weatherlink.com 1.10,2013-05-01 14:33:00,
2013-05-01 09:48:00,73.4,58.0,30.02,WNW,288,1.0,5.0,58,0.00,,,0.00,weatherlink.com 1.10,2013-05-01 14:48:00,
2013-05-01 10:03:00,74.6,56.0,30.02,WNW,295,3.0,6.0,53,0.00,,,0.00,weatherlink.com 1.10,2013-05-01 15:03:00,
2013-05-01 10:18:00,75.8,55.0,30.02,WNW,282,3.0,5.0,48,0.00,,,0.00,weatherlink.com 1.10,2013-05-01 15:18:00,
2013-05-01 10:33:00,76.3,57.0,30.02,WNW,288,4.0,8.0,51,0.00,,,0.00,weatherlink.com 1.10,2013-05-01 15:33:00,
2013-05-01 10:48:00,75.9,55.0,30.02,WNW,297,5.0,8.0,48,0.00,,,0.00,weatherlink.com 1.10,2013-05-01 15:48:00,
2013-05-01 11:03:00,76.1,53.0,30.02,NW,309,2.0,7.0,44,0.00,,,0.00,weatherlink.com 1.10,2013-05-01 16:03:00,
2013-05-01 11:18:00,76.0,53.0,30.02,NW,311,3.0,8.0,45,0.00,,,0.00,weatherlink.com 1.10,2013-05-01 16:18:00,
2013-05-01 11:33:00,76.8,53.0,30.02,West,260,1.0,8.0,44,0.00,,,0.00,weatherlink.com 1.10,2013-05-01 16:33:00,
2013-05-01 11:50:00,77.1,54.0,30.02,North,356,7.0,8.0,45,0.00,,,0.00,weatherlink.com 1.10,2013-05-01 16:50:00,
2013-05-01 12:03:00,77.4,52.0,30.02,WNW,284,1.0,9.0,41,0.00,,,0.00,weatherlink.com 1.10,2013-05-01 17:03:00,
2013-05-01 12:18:00,77.6,52.0,30.02,NW,314,5.0,7.0,41,0.00,,,0.00,weatherlink.com 1.10,2013-05-01 17:18:00,
2013-05-01 12:33:00,78.7,57.0,30.02,NW,316,5.0,7.0,47,0.00,,,0.00,weatherlink.com 1.10,2013-05-01 17:33:00,
2013-05-01 12:48:00,78.7,52.0,30.02,SW,230,2.0,11.0,39,0.00,,,0.00,weatherlink.com 1.10,2013-05-01 17:48:00,
2013-05-01 13:03:00,79.5,55.0,30.01,SW,228,2.0,6.0,43,0.00,,,0.00,weatherlink.com 1.10,2013-05-01 18:03:00,
2013-05-01 13:18:00,79.3,55.0,30.01,West,264,2.0,9.0,43,0.00,,,0.00,weatherlink.com 1.10,2013-05-01 18:18:00,
2013-05-01 13:33:00,79.4,54.0,30.01,WSW,249,10.0,11.0,42,0.00,,,0.00,weatherlink.com 1.10,2013-05-01 18:33:00,
2013-05-01 13:48:00,79.8,53.0,30.01,SSW,208,5.0,12.0,40,0.00,,,0.00,weatherlink.com 1.10,2013-05-01 18:48:00,
2013-05-01 14:03:00,80.5,53.0,30.01,WSW,239,9.0,13.0,38,0.00,,,0.00,weatherlink.com 1.10,2013-05-01 19:03:00,
2013-05-01 14:18:00,80.7,52.0,30.01,WSW,243,7.0,12.0,37,0.00,,,0.00,weatherlink.com 1.10,2013-05-01 19:18:00,
2013-05-01 14:34:00,80.7,56.0,30.01,West,271,3.0,9.0,43,0.00,,,0.00,weatherlink.com 1.10,2013-05-01 19:34:00,
2013-05-01 14:49:00,80.6,54.0,30.01,SW,236,7.0,10.0,40,0.00,,,0.00,weatherlink.com 1.10,2013-05-01 19:49:00,
2013-05-01 15:04:00,79.9,54.0,30.01,SW,214,9.0,15.0,41,0.00,,,0.00,weatherlink.com 1.10,2013-05-01 20:04:00,
2013-05-01 15:19:00,81.1,52.0,30.01,South,187,5.0,13.0,37,0.00,,,0.00,weatherlink.com 1.10,2013-05-01 20:19:00,
2013-05-01 15:34:00,81.4,53.0,30.01,SW,236,7.0,13.0,38,0.00,,,0.00,weatherlink.com 1.10,2013-05-01 20:34:00,
2013-05-01 15:49:00,80.9,54.0,30.01,SW,224,4.0,13.0,40,0.00,,,0.00,weatherlink.com 1.10,2013-05-01 20:49:00,
2013-05-01 16:04:00,81.5,53.0,30.00,SSW,200,5.0,12.0,38,0.00,,,0.00,weatherlink.com 1.10,2013-05-01 21:04:00,
2013-05-01 16:19:00,81.2,54.0,30.00,SW,221,4.0,14.0,39,0.00,,,0.00,weatherlink.com 1.10,2013-05-01 21:19:00,
2013-05-01 16:34:00,80.8,55.0,30.00,South,172,7.0,11.0,41,0.00,,,0.00,weatherlink.com 1.10,2013-05-01 21:34:00,
2013-05-01 16:49:00,80.2,57.0,30.00,SW,233,7.0,10.0,45,0.00,,,0.00,weatherlink.com 1.10,2013-05-01 21:49:00,
2013-05-01 17:04:00,80.5,57.0,30.00,West,280,3.0,13.0,44,0.00,,,0.00,weatherlink.com 1.10,2013-05-01 22:04:00,
2013-05-01 17:19:00,80.4,55.0,30.00,WSW,238,7.0,14.0,42,0.00,,,0.00,weatherlink.com 1.10,2013-05-01 22:19:00,
2013-05-01 17:34:00,79.6,56.0,29.99,SW,229,9.0,14.0,45,0.00,,,0.00,weatherlink.com 1.10,2013-05-01 22:34:00,
2013-05-01 17:49:00,79.6,56.0,29.99,SW,235,10.0,11.0,45,0.00,,,0.00,weatherlink.com 1.10,2013-05-01 22:49:00,
2013-05-01 18:04:00,79.3,56.0,29.99,SSW,212,6.0,8.0,45,0.00,,,0.00,weatherlink.com 1.10,2013-05-01 23:04:00,
2013-05-01 18:19:00,78.9,57.0,29.99,SSE,160,4.0,8.0,47,0.00,,,0.00,weatherlink.com 1.10,2013-05-01 23:19:00,
2013-05-01 18:34:00,78.7,57.0,29.99,South,173,2.0,8.0,48,0.00,,,0.00,weatherlink.com 1.10,2013-05-01 23:34:00,
2013-05-01 18:49:00,78.0,57.0,29.99,South,188,2.0,6.0,49,0.00,,,0.00,weatherlink.com 1.10,2013-05-01 23:49:00,
2013-05-01 19:04:00,77.1,58.0,29.99,SSE,168,3.0,6.0,51,0.00,,,0.00,weatherlink.com 1.10,2013-05-02 00:04:00,
2013-05-01 19:19:00,76.3,57.0,30.00,SE,143,3.0,5.0,52,0.00,,,0.00,weatherlink.com 1.10,2013-05-02 00:19:00,
2013-05-01 19:34:00,76.0,58.0,30.00,SSE,150,3.0,6.0,53,0.00,,,0.00,weatherlink.com 1.10,2013-05-02 00:34:00,
2013-05-01 19:49:00,75.0,58.0,30.00,SE,146,1.0,3.0,55,0.00,,,0.00,weatherlink.com 1.10,2013-05-02 00:49:00,
2013-05-01 20:04:00,73.7,58.0,30.00,SSE,153,2.0,4.0,58,0.00,,,0.00,weatherlink.com 1.10,2013-05-02 01:04:00,
2013-05-01 20:19:00,73.0,58.0,30.01,SSE,162,1.0,4.0,60,0.00,,,0.00,weatherlink.com 1.10,2013-05-02 01:19:00,
2013-05-01 20:34:00,73.1,59.0,30.02,SSE,158,2.0,6.0,62,0.00,,,0.00,weatherlink.com 1.10,2013-05-02 01:34:00,
2013-05-01 20:49:00,73.0,60.0,30.02,SSE,158,2.0,7.0,64,0.00,,,0.00,weatherlink.com 1.10,2013-05-02 01:49:00,
2013-05-01 21:04:00,72.6,60.0,30.02,SSW,207,3.0,6.0,65,0.00,,,0.00,weatherlink.com 1.10,2013-05-02 02:04:00,
2013-05-01 21:19:00,72.3,60.0,30.03,SSE,164,3.0,7.0,66,0.00,,,0.00,weatherlink.com 1.10,2013-05-02 02:19:00,
2013-05-01 21:34:00,71.8,61.0,30.03,SSE,155,3.0,6.0,68,0.00,,,0.00,weatherlink.com 1.10,2013-05-02 02:34:00,
2013-05-01 21:49:00,71.4,61.0,30.03,South,181,2.0,6.0,69,0.00,,,0.00,weatherlink.com 1.10,2013-05-02 02:49:00,
2013-05-01 22:04:00,71.3,61.0,30.04,SSW,204,2.0,5.0,69,0.00,,,0.00,weatherlink.com 1.10,2013-05-02 03:04:00,
2013-05-01 22:19:00,71.2,61.0,30.04,South,179,2.0,6.0,70,0.00,,,0.00,weatherlink.com 1.10,2013-05-02 03:19:00,
2013-05-01 22:34:00,70.7,61.0,30.04,SW,226,1.0,3.0,71,0.00,,,0.00,weatherlink.com 1.10,2013-05-02 03:34:00,
2013-05-01 22:49:00,70.8,61.0,30.04,SSW,193,2.0,4.0,71,0.00,,,0.00,weatherlink.com 1.10,2013-05-02 03:49:00,
2013-05-01 23:04:00,70.3,61.0,30.04,SSE,154,2.0,3.0,72,0.00,,,0.00,weatherlink.com 1.10,2013-05-02 04:04:00,
2013-05-01 23:19:00,70.5,61.0,30.04,SSW,199,3.0,5.0,71,0.00,,,0.00,weatherlink.com 1.10,2013-05-02 04:19:00,
2013-05-01 23:34:00,70.7,61.0,30.04,South,177,2.0,4.0,71,0.00,,,0.00,weatherlink.com 1.10,2013-05-02 04:34:00,
2013-05-01 23:49:00,70.6,61.0,30.04,SW,223,4.0,5.0,71,0.00,,,0.00,weatherlink.com 1.10,2013-05-02 04:49:00,